| time (UTC) | temp F | wind direction | speed MPH | gust MPH | rain 1hr in | rain 24hr in | rain mn in | humidity % | barometer mb |
| 20260505102213 | 62 | 143 | 2.0 | 10.0 | 0.00 | 0.00 | 0.00 | 61 | 1008.6 |
| 20260505101710 | 62 | 80 | 2.0 | 10.0 | 0.00 | 0.00 | 0.00 | 61 | 1008.6 |
| 20260505101211 | 62 | 92 | 3.0 | 11.0 | 0.00 | 0.00 | 0.00 | 62 | 1008.3 |
| 20260505100933 | 62 | 103 | 2.0 | 11.0 | 0.00 | 0.00 | 0.00 | 62 | 1008.3 |
| 20260505100212 | 62 | 84 | 3.0 | 8.0 | 0.00 | 0.00 | 0.00 | 62 | 1008.3 |
| 20260505095706 | 62 | 81 | 2.0 | 8.0 | 0.00 | 0.00 | 0.00 | 63 | 1008.3 |
| 20260505095207 | 62 | 52 | 2.0 | 10.0 | 0.00 | 0.00 | 0.00 | 63 | 1008.2 |
| 20260505094707 | 62 | 84 | 2.0 | 10.0 | 0.00 | 0.00 | 0.00 | 63 | 1008.2 |
| 20260505094206 | 62 | 98 | 3.0 | 10.0 | 0.00 | 0.00 | 0.00 | 63 | 1008.1 |
| 20260505093707 | 62 | 55 | 4.0 | 10.0 | 0.00 | 0.00 | 0.00 | 63 | 1008.2 |
| 20260505093205 | 62 | 77 | 3.0 | 10.0 | 0.00 | 0.00 | 0.00 | 63 | 1008.3 |
| 20260505092703 | 62 | 83 | 3.0 | 11.0 | 0.00 | 0.00 | 0.00 | 63 | 1008.2 |
| 20260505092428 | 62 | 75 | 3.0 | 11.0 | 0.00 | 0.00 | 0.00 | 62 | 1008.3 |
| 20260505091700 | 62 | 84 | 3.0 | 10.0 | 0.00 | 0.00 | 0.00 | 62 | 1008.3 |
| 20260505091419 | 62 | 91 | 3.0 | 10.0 | 0.00 | 0.00 | 0.00 | 62 | 1008.3 |
| 20260505090648 | 62 | 113 | 1.0 | 7.0 | 0.00 | 0.00 | 0.00 | 62 | 1008.3 |
| 20260505090147 | 62 | 84 | 1.0 | 6.0 | 0.00 | 0.00 | 0.00 | 62 | 1008.3 |
| 20260505085644 | 62 | 116 | 1.0 | 6.0 | 0.00 | 0.00 | 0.00 | 61 | 1008.4 |
| 20260505085144 | 62 | 82 | 1.0 | 5.0 | 0.00 | 0.00 | 0.00 | 62 | 1008.6 |
| 20260505084645 | 62 | 104 | 0.0 | 4.0 | 0.00 | 0.00 | 0.00 | 62 | 1008.7 |
| 20260505084144 | 62 | 178 | 0.0 | 5.0 | 0.00 | 0.00 | 0.00 | 61 | 1008.7 |
| 20260505083644 | 62 | 147 | 0.0 | 5.0 | 0.00 | 0.00 | 0.00 | 61 | 1008.6 |
| 20260505083145 | 63 | 193 | 0.0 | 2.0 | 0.00 | 0.00 | 0.00 | 61 | 1008.4 |
| 20260505082642 | 63 | 148 | 0.0 | 4.0 | 0.00 | 0.00 | 0.00 | 60 | 1008.1 |
| 20260505082141 | 63 | 120 | 1.0 | 9.0 | 0.00 | 0.00 | 0.00 | 59 | 1007.8 |
| 20260505081643 | 63 | 127 | 2.0 | 9.0 | 0.00 | 0.00 | 0.00 | 59 | 1007.9 |
| 20260505081141 | 63 | 76 | 1.0 | 6.0 | 0.00 | 0.00 | 0.00 | 59 | 1007.8 |
| 20260505080641 | 63 | 100 | 1.0 | 5.0 | 0.00 | 0.00 | 0.00 | 60 | 1007.8 |
| 20260505080141 | 63 | 78 | 1.0 | 8.0 | 0.00 | 0.00 | 0.00 | 60 | 1007.8 |
| 20260505075641 | 63 | 88 | 1.0 | 8.0 | 0.00 | 0.00 | 0.00 | 62 | 1007.8 |
| 20260505075140 | 63 | 109 | 1.0 | 4.0 | 0.00 | 0.00 | 0.00 | 61 | 1007.9 |
| 20260505074640 | 63 | 109 | 1.0 | 4.0 | 0.00 | 0.00 | 0.00 | 62 | 1007.9 |
| 20260505074140 | 63 | 110 | 1.0 | 6.0 | 0.00 | 0.00 | 0.00 | 62 | 1007.7 |
| 20260505073641 | 63 | 82 | 1.0 | 7.0 | 0.00 | 0.00 | 0.00 | 62 | 1007.7 |
| 20260505073141 | 63 | 127 | 1.0 | 7.0 | 0.00 | 0.00 | 0.00 | 61 | 1007.6 |
| 20260505072640 | 64 | 120 | 2.0 | 16.0 | 0.00 | 0.00 | 0.00 | 61 | 1007.7 |
| 20260505072140 | 63 | 84 | 4.0 | 16.0 | 0.00 | 0.00 | 0.00 | 61 | 1007.6 |
| 20260505071641 | 62 | 92 | 3.0 | 13.0 | 0.00 | 0.00 | 0.00 | 63 | 1007.7 |
| 20260505071140 | 61 | 132 | 1.0 | 7.0 | 0.00 | 0.00 | 0.00 | 64 | 1007.8 |
| 20260505070858 | 60 | 96 | 1.0 | 7.0 | 0.00 | 0.00 | 0.00 | 66 | 1007.8 |
| 20260505070142 | 59 | 104 | 0.0 | 4.0 | 0.00 | 0.00 | 0.00 | 67 | 1007.7 |
| 20260505065640 | 59 | 146 | 0.0 | 4.0 | 0.00 | 0.00 | 0.00 | 68 | 1007.6 |
| 20260505065142 | 58 | 111 | 0.0 | 4.0 | 0.00 | 0.00 | 0.00 | 70 | 1007.6 |
| 20260505064638 | 57 | 111 | 0.0 | 4.0 | 0.00 | 0.00 | 0.00 | 71 | 1007.6 |
| 20260505064138 | 56 | 121 | 0.0 | 6.0 | 0.00 | 0.00 | 0.00 | 73 | 1007.6 |
| 20260505063638 | 55 | 121 | 0.0 | 6.0 | 0.00 | 0.00 | 0.00 | 75 | 1007.7 |
| 20260505063136 | 54 | 80 | 0.0 | 0.0 | 0.00 | 0.00 | 0.00 | 77 | 1007.7 |
| 20260505062634 | 53 | 80 | 0.0 | 0.0 | 0.00 | 0.00 | 0.00 | 78 | 1007.7 |
| 20260505062134 | 53 | 80 | 0.0 | 1.0 | 0.00 | 0.00 | 0.00 | 78 | 1007.8 |
| 20260505061858 | 53 | 80 | 0.0 | 1.0 | 0.00 | 0.00 | 0.00 | 78 | 1007.8 |
| 20260505061135 | 53 | 80 | 0.0 | 0.0 | 0.00 | 0.00 | 0.00 | 78 | 1007.8 |
| 20260505060855 | 54 | 80 | 0.0 | 0.0 | 0.00 | 0.00 | 0.00 | 77 | 1007.8 |
| 20260505060132 | 54 | 80 | 0.0 | 0.0 | 0.00 | 0.00 | 0.00 | 77 | 1007.9 |
| 20260505055856 | 54 | 80 | 0.0 | 0.0 | 0.00 | 0.00 | 0.00 | 77 | 1007.9 |
| 20260505055130 | 55 | 80 | 0.0 | 0.0 | 0.00 | 0.00 | 0.00 | 76 | 1008.0 |
| 20260505054628 | 55 | 80 | 0.0 | 0.0 | 0.00 | 0.00 | 0.00 | 75 | 1008.0 |
| 20260505054352 | 56 | 80 | 0.0 | 0.0 | 0.00 | 0.00 | 0.00 | 75 | 1008.0 |
| 20260505053629 | 56 | 80 | 0.0 | 0.0 | 0.00 | 0.00 | 0.00 | 73 | 1008.0 |
| 20260505053128 | 57 | 80 | 0.0 | 0.0 | 0.00 | 0.00 | 0.00 | 72 | 1008.1 |
| 20260505052626 | 57 | 80 | 0.0 | 0.0 | 0.00 | 0.00 | 0.00 | 71 | 1008.1 |
| 20260505052127 | 58 | 80 | 0.0 | 0.0 | 0.00 | 0.00 | 0.00 | 70 | 1008.2 |
| 20260505051628 | 58 | 80 | 0.0 | 0.0 | 0.00 | 0.00 | 0.00 | 69 | 1008.2 |
| 20260505051126 | 59 | 80 | 0.0 | 0.0 | 0.00 | 0.00 | 0.00 | 68 | 1008.2 |
| 20260505050626 | 59 | 80 | 0.0 | 0.0 | 0.00 | 0.00 | 0.00 | 67 | 1008.2 |
| 20260505050139 | 60 | 80 | 0.0 | 0.0 | 0.00 | 0.00 | 0.00 | 66 | 1008.3 |
| 20260505041126 | 59 | 69 | 0.0 | 3.0 | 0.00 | 0.00 | 0.00 | 69 | 1008.4 |
| 20260505040627 | 58 | 69 | 0.0 | 0.0 | 0.00 | 0.00 | 0.00 | 70 | 1008.4 |
| 20260505040124 | 58 | 69 | 0.0 | 1.0 | 0.00 | 0.00 | 0.00 | 70 | 1008.4 |
| 20260505035626 | 58 | 69 | 0.0 | 1.0 | 0.00 | 0.00 | 0.00 | 69 | 1008.4 |
| 20260505035122 | 58 | 69 | 0.0 | 0.0 | 0.00 | 0.00 | 0.00 | 70 | 1008.4 |
| 20260505034622 | 57 | 69 | 0.0 | 0.0 | 0.00 | 0.00 | 0.00 | 71 | 1008.4 |
| 20260505034122 | 57 | 69 | 0.0 | 0.0 | 0.00 | 0.00 | 0.00 | 72 | 1008.6 |
| 20260505033617 | 57 | 69 | 0.0 | 0.0 | 0.00 | 0.00 | 0.00 | 72 | 1008.6 |
| 20260505033118 | 57 | 69 | 0.0 | 0.0 | 0.00 | 0.00 | 0.00 | 71 | 1008.4 |
| 20260505032617 | 58 | 69 | 0.0 | 0.0 | 0.00 | 0.00 | 0.00 | 72 | 1008.4 |
| 20260505032114 | 58 | 69 | 0.0 | 0.0 | 0.00 | 0.00 | 0.00 | 70 | 1008.4 |
| 20260505031612 | 58 | 69 | 0.0 | 0.0 | 0.00 | 0.00 | 0.00 | 69 | 1008.4 |
| 20260505031112 | 59 | 69 | 0.0 | 0.0 | 0.00 | 0.00 | 0.00 | 69 | 1008.3 |
| 20260505030611 | 59 | 69 | 0.0 | 0.0 | 0.00 | 0.00 | 0.00 | 68 | 1008.3 |
| 20260505030116 | 60 | 69 | 0.0 | 0.0 | 0.00 | 0.00 | 0.00 | 68 | 1008.3 |
| 20260505025832 | 60 | 69 | 0.0 | 0.0 | 0.00 | 0.00 | 0.00 | 67 | 1008.3 |
| 20260505025112 | 61 | 69 | 0.0 | 3.0 | 0.00 | 0.00 | 0.00 | 66 | 1008.4 |
| 20260505024612 | 61 | 69 | 0.0 | 3.0 | 0.00 | 0.00 | 0.00 | 63 | 1008.3 |
| 20260505024331 | 61 | 65 | 0.0 | 0.0 | 0.00 | 0.00 | 0.00 | 65 | 1008.3 |
| 20260505023834 | 61 | 65 | 0.0 | 3.0 | 0.00 | 0.00 | 0.00 | 64 | 1008.3 |
| 20260505023110 | 60 | 65 | 0.0 | 3.0 | 0.00 | 0.00 | 0.00 | 64 | 1008.3 |
| 20260505022608 | 60 | 59 | 0.0 | 0.0 | 0.00 | 0.00 | 0.00 | 66 | 1008.3 |
| 20260505022110 | 60 | 59 | 0.0 | 1.0 | 0.00 | 0.00 | 0.00 | 65 | 1008.4 |
| 20260505021607 | 61 | 59 | 0.0 | 4.0 | 0.00 | 0.00 | 0.00 | 64 | 1008.4 |
| 20260505021108 | 61 | 107 | 0.0 | 4.0 | 0.00 | 0.00 | 0.00 | 64 | 1008.4 |
| 20260505020608 | 61 | 47 | 0.0 | 1.0 | 0.00 | 0.00 | 0.00 | 63 | 1008.3 |
| 20260505020108 | 62 | 47 | 0.0 | 0.0 | 0.00 | 0.00 | 0.00 | 63 | 1008.4 |
| 20260505015605 | 62 | 47 | 0.0 | 0.0 | 0.00 | 0.00 | 0.00 | 62 | 1008.3 |
| 20260505015108 | 63 | 47 | 0.0 | 1.0 | 0.00 | 0.00 | 0.00 | 61 | 1008.4 |
| 20260505014605 | 63 | 47 | 0.0 | 3.0 | 0.00 | 0.00 | 0.00 | 59 | 1008.3 |
| 20260505014106 | 64 | 47 | 1.0 | 3.0 | 0.00 | 0.00 | 0.00 | 59 | 1008.2 |
| 20260505013833 | 64 | 46 | 0.0 | 3.0 | 0.00 | 0.00 | 0.00 | 57 | 1008.1 |
| 20260505013106 | 64 | 76 | 0.0 | 3.0 | 0.00 | 0.00 | 0.00 | 57 | 1008.2 |
| 20260505012605 | 65 | 76 | 0.0 | 3.0 | 0.00 | 0.00 | 0.00 | 56 | 1008.2 |
| 20260505012106 | 65 | 74 | 1.0 | 6.0 | 0.00 | 0.00 | 0.00 | 55 | 1008.2 |
| 20260505011606 | 65 | 103 | 2.0 | 6.0 | 0.00 | 0.00 | 0.00 | 54 | 1008.2 |
| 20260505011106 | 66 | 88 | 2.0 | 11.0 | 0.00 | 0.00 | 0.00 | 53 | 1008.2 |
| 20260505011045 | 66 | 85 | 1.0 | 11.0 | 0.00 | 0.00 | 0.00 | 52 | 1008.3 |
| 20260505010105 | 65 | 73 | 0.0 | 4.0 | 0.00 | 0.00 | 0.00 | 52 | 1008.3 |
| 20260505005605 | 66 | 90 | 0.0 | 0.0 | 0.00 | 0.00 | 0.00 | 52 | 1008.3 |
| 20260505005103 | 66 | 90 | 0.0 | 0.0 | 0.00 | 0.00 | 0.00 | 49 | 1008.1 |
| 20260505004601 | 67 | 90 | 1.0 | 7.0 | 0.00 | 0.00 | 0.00 | 49 | 1008.0 |
| 20260505004101 | 67 | 90 | 2.0 | 7.0 | 0.00 | 0.00 | 0.00 | 49 | 1008.0 |
| 20260505003824 | 67 | 65 | 1.0 | 6.0 | 0.00 | 0.00 | 0.00 | 48 | 1007.8 |
| 20260505003056 | 67 | 98 | 0.0 | 4.0 | 0.00 | 0.00 | 0.00 | 49 | 1007.8 |
| 20260505002552 | 67 | 87 | 1.0 | 7.0 | 0.00 | 0.00 | 0.00 | 47 | 1007.8 |
| 20260505002053 | 67 | 126 | 2.0 | 8.0 | 0.00 | 0.00 | 0.00 | 46 | 1007.7 |
| 20260505001551 | 67 | 130 | 1.0 | 8.0 | 0.00 | 0.00 | 0.00 | 47 | 1007.8 |
| 20260505001050 | 67 | 101 | 1.0 | 7.0 | 0.00 | 0.00 | 0.00 | 46 | 1007.7 |
| 20260505000552 | 67 | 85 | 2.0 | 8.0 | 0.00 | 0.00 | 0.00 | 46 | 1007.7 |
| 20260504235547 | 68 | 178 | 2.0 | 10.0 | 0.00 | 0.00 | 0.00 | 45 | 1007.6 |
| 20260504235310 | 68 | 80 | 2.0 | 9.0 | 0.00 | 0.00 | 0.00 | 44 | 1007.7 |
| 20260504234808 | 68 | 95 | 2.0 | 9.0 | 0.00 | 0.00 | 0.00 | 44 | 1007.6 |
| 20260504234045 | 69 | 78 | 3.0 | 10.0 | 0.00 | 0.00 | 0.00 | 43 | 1007.6 |
| 20260504233552 | 69 | 78 | 4.0 | 10.0 | 0.00 | 0.00 | 0.00 | 42 | 1007.5 |
| 20260504233043 | 69 | 115 | 3.0 | 10.0 | 0.00 | 0.00 | 0.00 | 42 | 1007.5 |
| 20260504232543 | 69 | 88 | 3.0 | 15.0 | 0.00 | 0.00 | 0.00 | 42 | 1007.5 |
| 20260504232041 | 69 | 80 | 3.0 | 15.0 | 0.00 | 0.00 | 0.00 | 41 | 1007.4 |
| 20260504231539 | 70 | 104 | 3.0 | 10.0 | 0.00 | 0.00 | 0.00 | 42 | 1007.3 |
| 20260504231035 | 70 | 123 | 4.0 | 12.0 | 0.00 | 0.00 | 0.00 | 40 | 1007.2 |
| 20260504230536 | 71 | 179 | 6.0 | 16.0 | 0.00 | 0.00 | 0.00 | 41 | 1007.3 |
| 20260504230035 | 71 | 97 | 4.0 | 16.0 | 0.00 | 0.00 | 0.00 | 40 | 1007.2 |
| 20260504225748 | 71 | 85 | 3.0 | 11.0 | 0.00 | 0.00 | 0.00 | 41 | 1007.1 |
| 20260504225251 | 71 | 103 | 2.0 | 10.0 | 0.00 | 0.00 | 0.00 | 42 | 1007.0 |
| 20260504224529 | 71 | 79 | 2.0 | 13.0 | 0.00 | 0.00 | 0.00 | 43 | 1007.1 |
| 20260504224027 | 71 | 173 | 4.0 | 13.0 | 0.00 | 0.00 | 0.00 | 43 | 1007.1 |
| 20260504223525 | 71 | 42 | 5.0 | 13.0 | 0.00 | 0.00 | 0.00 | 42 | 1007.1 |
| 20260504223247 | 71 | 91 | 5.0 | 13.0 | 0.00 | 0.00 | 0.00 | 42 | 1007.1 |
| 20260504222524 | 71 | 48 | 5.0 | 17.0 | 0.00 | 0.00 | 0.00 | 42 | 1007.0 |
| 20260504222025 | 71 | 109 | 5.0 | 17.0 | 0.00 | 0.00 | 0.00 | 42 | 1007.1 |
| 20260504221801 | 71 | 94 | 4.0 | 12.0 | 0.00 | 0.00 | 0.00 | 42 | 1007.1 |
| 20260504221026 | 71 | 155 | 4.0 | 15.0 | 0.00 | 0.00 | 0.00 | 42 | 1007.1 |
| 20260504220527 | 71 | 103 | 4.0 | 15.0 | 0.00 | 0.00 | 0.00 | 41 | 1007.1 |
| 20260504220254 | 71 | 157 | 5.0 | 14.0 | 0.00 | 0.00 | 0.00 | 41 | 1007.1 |
| 20260504215526 | 72 | 115 | 7.0 | 18.0 | 0.00 | 0.00 | 0.00 | 41 | 1007.0 |
| 20260504215024 | 72 | 77 | 5.0 | 18.0 | 0.00 | 0.00 | 0.00 | 40 | 1006.9 |
| 20260504214743 | 72 | 90 | 4.0 | 9.0 | 0.00 | 0.00 | 0.00 | 40 | 1007.1 |
| 20260504214504 | 71 | 119 | 4.0 | 10.0 | 0.00 | 0.00 | 0.00 | 41 | 1007.1 |
| 20260504213527 | 71 | 169 | 5.0 | 13.0 | 0.00 | 0.00 | 0.00 | 40 | 1007.0 |
| 20260504213025 | 72 | 117 | 5.0 | 14.0 | 0.00 | 0.00 | 0.00 | 38 | 1007.1 |
| 20260504212525 | 72 | 124 | 5.0 | 14.0 | 0.00 | 0.00 | 0.00 | 38 | 1007.1 |
| 20260504212018 | 72 | 186 | 4.0 | 12.0 | 0.00 | 0.00 | 0.00 | 39 | 1007.0 |
| 20260504211731 | 72 | 83 | 4.0 | 11.0 | 0.00 | 0.00 | 0.00 | 39 | 1007.0 |
| 20260504211009 | 71 | 168 | 4.0 | 12.0 | 0.00 | 0.00 | 0.00 | 40 | 1007.1 |
| 20260504210459 | 70 | 78 | 4.0 | 12.0 | 0.00 | 0.00 | 0.00 | 39 | 1007.0 |
| 20260504210218 | 71 | 79 | 3.0 | 11.0 | 0.00 | 0.00 | 0.00 | 40 | 1007.1 |
| 20260504205449 | 71 | 122 | 3.0 | 11.0 | 0.00 | 0.00 | 0.00 | 39 | 1007.1 |
| 20260504205206 | 72 | 157 | 4.0 | 11.0 | 0.00 | 0.00 | 0.00 | 39 | 1007.2 |
| 20260504204657 | 73 | 117 | 4.0 | 14.0 | 0.00 | 0.00 | 0.00 | 37 | 1007.2 |
| 20260504203937 | 73 | 98 | 4.0 | 14.0 | 0.00 | 0.00 | 0.00 | 35 | 1007.1 |
| 20260504203437 | 73 | 116 | 4.0 | 20.0 | 0.00 | 0.00 | 0.00 | 35 | 1007.2 |
| 20260504203202 | 73 | 122 | 5.0 | 20.0 | 0.00 | 0.00 | 0.00 | 36 | 1007.3 |
| 20260504202702 | 73 | 153 | 3.0 | 13.0 | 0.00 | 0.00 | 0.00 | 37 | 1007.4 |
| 20260504202155 | 73 | 96 | 4.0 | 14.0 | 0.00 | 0.00 | 0.00 | 39 | 1007.3 |
| 20260504201436 | 72 | 148 | 4.0 | 14.0 | 0.00 | 0.00 | 0.00 | 39 | 1007.4 |
| 20260504200937 | 71 | 93 | 4.0 | 12.0 | 0.00 | 0.00 | 0.00 | 38 | 1007.5 |
| 20260504200437 | 72 | 147 | 4.0 | 12.0 | 0.00 | 0.00 | 0.00 | 35 | 1007.5 |
| 20260504195935 | 73 | 223 | 3.0 | 11.0 | 0.00 | 0.00 | 0.00 | 37 | 1007.6 |
| 20260504195436 | 73 | 171 | 3.0 | 16.0 | 0.00 | 0.00 | 0.00 | 36 | 1007.7 |
| 20260504194936 | 73 | 124 | 4.0 | 16.0 | 0.00 | 0.00 | 0.00 | 35 | 1007.7 |
| 20260504194437 | 73 | 113 | 4.0 | 13.0 | 0.00 | 0.00 | 0.00 | 35 | 1007.6 |
| 20260504193935 | 72 | 111 | 5.0 | 13.0 | 0.00 | 0.00 | 0.00 | 38 | 1007.7 |
| 20260504193434 | 71 | 73 | 7.0 | 18.0 | 0.00 | 0.00 | 0.00 | 39 | 1007.7 |
| 20260504192934 | 72 | 76 | 7.0 | 18.0 | 0.00 | 0.00 | 0.00 | 36 | 1007.9 |
| 20260504192435 | 72 | 101 | 5.0 | 15.0 | 0.00 | 0.00 | 0.00 | 33 | 1008.0 |
| 20260504191935 | 72 | 122 | 5.0 | 15.0 | 0.00 | 0.00 | 0.00 | 35 | 1007.9 |
| 20260504191437 | 72 | 96 | 4.0 | 15.0 | 0.00 | 0.00 | 0.00 | 35 | 1008.2 |
| 20260504190933 | 72 | 110 | 3.0 | 11.0 | 0.00 | 0.00 | 0.00 | 36 | 1008.1 |
| 20260504190435 | 72 | 60 | 4.0 | 13.0 | 0.00 | 0.00 | 0.00 | 35 | 1008.1 |
| 20260504185935 | 71 | 171 | 6.0 | 16.0 | 0.00 | 0.00 | 0.00 | 35 | 1008.1 |
| 20260504185433 | 71 | 121 | 5.0 | 16.0 | 0.00 | 0.00 | 0.00 | 33 | 1008.2 |
| 20260504184933 | 72 | 132 | 3.0 | 12.0 | 0.00 | 0.00 | 0.00 | 31 | 1008.3 |
| 20260504184435 | 72 | 159 | 3.0 | 14.0 | 0.00 | 0.00 | 0.00 | 32 | 1008.3 |
| 20260504183936 | 72 | 223 | 3.0 | 14.0 | 0.00 | 0.00 | 0.00 | 33 | 1008.4 |
| 20260504183433 | 71 | 80 | 4.0 | 11.0 | 0.00 | 0.00 | 0.00 | 34 | 1008.4 |
| 20260504183148 | 71 | 178 | 5.0 | 14.0 | 0.00 | 0.00 | 0.00 | 34 | 1008.7 |
| 20260504182428 | 71 | 142 | 5.0 | 14.0 | 0.00 | 0.00 | 0.00 | 33 | 1008.8 |
| 20260504181931 | 71 | 161 | 4.0 | 12.0 | 0.00 | 0.00 | 0.00 | 35 | 1008.8 |
| 20260504181431 | 70 | 121 | 5.0 | 15.0 | 0.00 | 0.00 | 0.00 | 36 | 1008.8 |
| 20260504180928 | 70 | 62 | 8.0 | 20.0 | 0.00 | 0.00 | 0.00 | 36 | 1009.0 |
| 20260504180428 | 70 | 102 | 7.0 | 20.0 | 0.00 | 0.00 | 0.00 | 38 | 1008.9 |
| 20260504175928 | 70 | 55 | 7.0 | 18.0 | 0.00 | 0.00 | 0.00 | 42 | 1009.0 |
| 20260504175432 | 70 | 75 | 5.0 | 15.0 | 0.00 | 0.00 | 0.00 | 36 | 1009.0 |
| 20260504174928 | 70 | 69 | 5.0 | 17.0 | 0.00 | 0.00 | 0.00 | 38 | 1009.0 |
| 20260504174424 | 70 | 155 | 6.0 | 17.0 | 0.00 | 0.00 | 0.00 | 39 | 1009.1 |
| 20260504173925 | 70 | 54 | 4.0 | 16.0 | 0.00 | 0.00 | 0.00 | 39 | 1009.1 |
| 20260504173424 | 69 | 122 | 4.0 | 13.0 | 0.00 | 0.00 | 0.00 | 38 | 1009.1 |
| 20260504172925 | 69 | 182 | 6.0 | 15.0 | 0.00 | 0.00 | 0.00 | 40 | 1009.2 |
| 20260504172423 | 68 | 123 | 6.0 | 15.0 | 0.00 | 0.00 | 0.00 | 41 | 1009.3 |
| 20260504171923 | 69 | 87 | 5.0 | 12.0 | 0.00 | 0.00 | 0.00 | 42 | 1009.4 |
| 20260504171649 | 68 | 84 | 5.0 | 16.0 | 0.00 | 0.00 | 0.00 | 47 | 1009.6 |
| 20260504170920 | 68 | 38 | 6.0 | 16.0 | 0.00 | 0.00 | 0.00 | 40 | 1009.6 |
| 20260504170423 | 67 | 141 | 6.0 | 15.0 | 0.00 | 0.00 | 0.00 | 42 | 1009.7 |
| 20260504160412 | 65 | 58 | 5.0 | 13.0 | 0.00 | 0.00 | 0.00 | 44 | 1010.5 |
| 20260504150905 | 63 | 150 | 4.0 | 15.0 | 0.00 | 0.00 | 0.00 | 46 | 1011.1 |
| 20260504150402 | 62 | 65 | 6.0 | 15.0 | 0.00 | 0.00 | 0.00 | 46 | 1011.1 |
| 20260504140400 | 59 | 92 | 6.0 | 17.0 | 0.00 | 0.00 | 0.00 | 47 | 1011.5 |
| 20260504130350 | 55 | 119 | 4.0 | 12.0 | 0.00 | 0.00 | 0.00 | 52 | 1011.6 |
| 20260504110331 | 36 | 249 | 0.0 | 0.0 | 0.00 | 0.00 | 0.00 | 89 | 1011.9 |